Location: Dehesa de la Cepeda
(40.6574°N, 4.3013°W)
Time: 09:26:15
(UTC+00:00)

TSX-5 - Pass Details

Date: 05 July 2020
Orbit: 404 x 1328 km, 68.9° (Epoch: 07 August)

Event Time Altitude Azimuth Distance (km) Brightness Sun altitude
Rises 23:15:47 0° 329° (NNW) 2,491 8.4 -24.8°
Reaches altitude 10° 23:17:43 10° 325° (NW) 1,689 7.2 -24.9°
Enters shadow 23:20:37 49° 292° (WNW) 713 4.5 -25.1°
